Location: �clusier
(49.9361°N, 2.7869°E)
Time: 08:37:29
(UTC+00:00)

Cosmos 2219 Rocket - Pass Details

Date: 16 June 2021
Orbit: 829 x 845 km, 71.0° (Epoch: 01 August)

Event Time Altitude Azimuth Distance (km) Brightness Sun altitude
Exits shadow 23:05:57 - 224° (SW) 2,737 4.5 -16.0°
Reaches altitude 10° 23:06:41 10° 226° (SW) 2,465 4.3 -16.1°
Maximum altitude 23:12:16 57° 304° (NW) 996 2.8 -16.2°
Drops below altitude 10° 23:17:51 10° 23° (NNE) 2,475 5.5 -16.3°
Sets 23:20:22 0° 28° (NNE) 3,412 6.3 -16.4°
